This is the latest recevied weather packets stored in our database for station/object K9NZF-2. If no packets are shown the sender has not sent any weather packets the latest 1 day(s).
| Time | Temp. | Humidity | Pressure | Rain* | Wind** | Luminosity | Snow |
|---|---|---|---|---|---|---|---|
| 1778085725 | 12.78° C | 60% | 975.2 hPa | 0 mm | - | - | - |
| 1778084881 | 12.78° C | 59% | 975 hPa | 0 mm | - | - | - |
| 1778084642 | 12.22° C | 61% | 975.3 hPa | 0 mm | - | - | - |
| 1778084522 | 12.22° C | 60% | 975.5 hPa | 0 mm | - | - | - |
| 1778084463 | 12.22° C | 60% | 975.5 hPa | 0 mm | - | - | - |
| 1778084162 | 12.22° C | 59% | 975.4 hPa | 0 mm | - | - | - |
| 1778083983 | 12.78° C | 65% | 975.4 hPa | 0 mm | - | - | - |
| 1778083922 | 12.22° C | 63% | 975.4 hPa | 0 mm | - | - | - |
| 1778083742 | 12.22° C | 62% | 975.4 hPa | 0 mm | - | - | - |
| 1778083622 | 12.22° C | 66% | 975.3 hPa | 0 mm | - | - | - |
| 1778083501 | 12.22° C | 64% | 975.4 hPa | 0 mm | - | - | - |
| 1778083443 | 12.22° C | 63% | 975.4 hPa | 0 mm | - | - | - |
| 1778082721 | 12.22° C | 68% | 975.4 hPa | 0 mm | - | - | - |
| 1778082422 | 11.67° C | 68% | 975 hPa | 0 mm | - | - | - |
| 1778082063 | 11.67° C | 67% | 975 hPa | 0 mm | - | - | - |
| 1778081883 | 11.67° C | 66% | 975 hPa | 0 mm | - | - | - |
| 1778081822 | 11.67° C | 66% | 975.1 hPa | 0 mm | - | - | - |
| 1778081763 | 11.67° C | 66% | 975.1 hPa | 0 mm | - | - | - |
| 1778081643 | 11.67° C | 64% | 975.2 hPa | 0 mm | - | - | - |
| 1778081582 | 11.67° C | 64% | 975.2 hPa | 0 mm | - | - | - |
| 1778081524 | 11.67° C | 63% | 975.2 hPa | 0 mm | - | - | - |
| 1778080982 | 11.67° C | 69% | 975.3 hPa | 0 mm | - | - | - |
| 1778080863 | 11.67° C | 69% | 975.3 hPa | 0 mm | - | - | - |
| 1778080562 | 11.11° C | 71% | 975.1 hPa | 0 mm | - | - | - |
| 1778080443 | 11.11° C | 68% | 975.1 hPa | 0 mm | - | - | - |
* Rain latest hour (hover to see other rain measurements)
** Current wind speed in m/s (hover to see current wind gust speed)